Location: *
(33.3200°N, 8.3381°W)
Time: 08:58:02
(UTC+00:00)

Daily predictions for brighter satellites

Satellite Brightness Start Highest point End
(mag) Time Altitude Azimuth Time Altitude Azimuth Time Altitude Azimuth
SL-24 R/B - RUBIN 2 4.1 19:19:08 10° SSW 19:24:21 73° ESE 19:30:20 10° NNE
FALCON 9 DEB 4.2 19:23:07 10° WSW 19:26:30 49° NW 19:29:55 10° NNE
Aureole 2 Rocket 2.7 19:23:25 10° NNW 19:26:48 67° WSW 19:30:01 10° S
ARGOS 4.3 19:23:12 10° ESE 19:27:25 24° ENE 19:31:37 10° NNE
Cosmos 1758 Rocket 4.2 19:23:34 10° NNE 19:27:30 34° E 19:31:24 10° SE
CZ-2C R/B 4.3 19:26:35 10° ENE 19:28:20 12° E 19:30:04 10° ESE
Cosmos 1606 Rocket 4.0 19:24:22 10° SSE 19:28:31 41° E 19:32:42 10° NNE
Aureole 3 4.3 19:27:09 10° SSW 19:31:42 73° W 19:37:35 10° N
USA 186 3.5 19:30:37 10° ESE 19:32:53 17° ENE 19:35:05 10° NNE
Cosmos 1939 Rocket 3.5 19:29:10 10° S 19:33:01 58° W 19:36:50 10° NNW
Cosmos 1953 2.8 19:30:55 10° SSW 19:34:50 65° W 19:38:48 10° N
CZ-4 R/B 2.8 19:31:27 10° S 19:35:03 39° W 19:38:41 10° NNW
SJ-11-01 4.3 19:44:28 10° SSE 19:49:06 63° ENE 19:53:47 10° N
Cosmos 2074 Rocket 4.0 19:47:54 10° N 19:54:11 69° E 20:00:26 10° SSE
HJ-1C 3.7 19:53:11 10° S 19:56:31 69° W 19:59:52 10° NNW
GPS 2-04 Rocket1 3.2 19:55:51 10° SW 19:59:38 43° SSE 20:01:56 21° E
ATLAS 5 CENTAUR R/B 2.5 19:56:11 10° SW 20:00:04 48° NW 20:04:19 10° NNE
H-2A R/B 2.1 19:55:30 10° SSE 20:00:38 60° ENE 20:05:39 10° N
SeaSat 1 4.3 19:57:28 10° N 20:01:52 34° WNW 20:06:15 10° WSW
USA 234 3.9 19:59:44 10° ENE 20:05:23 31° SE 20:11:00 10° S
SL-8 R/B 3.9 20:02:31 10° WNW 20:07:15 66° SW 20:10:33 19° SE
Cosmos 1140 Rocket 3.4 20:02:14 10° SSW 20:07:26 85° ESE 20:12:37 10° NNE
OAO 1 4.5 20:02:07 10° WSW 20:07:39 76° SSE 20:11:40 19° E
ATLAS 2AS CENTAUR R/B 3.0 20:01:18 10° NNW 20:08:31 52° NE 20:13:00 21° ESE
Ariane Rocket 2.9 20:04:25 10° SSE 20:09:29 85° ENE 20:14:33 10° NNW
MONITOR-E 3.8 20:09:18 43° ESE 20:09:47 51° ENE 20:12:21 10° N
Cosmos 1610 Rocket 4.5 20:05:16 10° N 20:11:20 59° E 20:17:20 10° SSE
COSMOS 2455 3.9 20:06:35 10° N 20:11:37 27° NE 20:13:57 21° E
CZ-2C R/B 2.8 20:11:04 10° SSE 20:15:59 78° ENE 20:20:45 10° N
SJ-6B 3.0 20:14:49 23° SSE 20:17:13 58° ENE 20:21:17 10° N
Cosmos 1300 3.2 20:18:02 35° ESE 20:18:22 36° E 20:21:52 10° NNE
Cosmos 1943 Rocket 4.3 20:14:36 10° NW 20:19:06 26° WSW 20:23:37 10° SSW
APEX 4.0 20:16:20 10° NNW 20:22:15 62° ENE 20:24:35 31° SE
Cosmos 2058 Rocket 3.4 20:28:32 10° SSW 20:33:01 68° W 20:37:30 10° N
SL-24 R/B 3.7 20:31:31 10° N 20:35:18 77° WNW 20:38:56 10° SSW
Hubble Space Telescope 1.3 20:31:55 10° WSW 20:35:49 42° S 20:35:58 41° S
CZ-2C R/B 3.8 20:31:57 10° N 20:36:37 79° WNW 20:41:09 10° SSW
SL-08 RB Rocket 3.6 20:34:26 31° SSE 20:36:38 83° ENE 20:41:14 10° N
Cosmos 2369 Rocket 4.3 20:32:09 10° NW 20:36:39 25° WSW 20:41:07 10° SSW
FREGAT/IRIS 4.1 20:38:14 25° SW 20:39:00 30° W 20:41:27 10° NNW
Cosmos 1340 Rocket 4.2 20:39:14 10° SSW 20:43:03 40° W 20:46:52 10° N
Cosmos 1461 3.1 20:39:14 10° NNW 20:43:49 65° ENE 20:44:25 58° ESE
Cosmos 921 Rocket 2.8 20:42:26 10° N 20:46:33 66° ENE 20:46:33 66° ENE
DMSP B5D2-2 4.1 20:45:14 10° N 20:50:29 82° WNW 20:55:43 10° SSW
COSMOS 2406 4.2 20:54:53 30° NE 20:54:53 30° NE 20:58:04 10° NE
Resurs 01 Rocket 2.2 20:55:17 42° NE 20:55:17 42° NE 20:58:41 10° N
Cosmos 2341 Rocket 3.9 20:49:47 10° N 20:56:12 73° E 20:58:20 44° SSE
MetOp-A 4.0 20:54:52 45° SSE 20:56:36 90° SSW 21:01:59 10° NNW
SPOT 3 Rocket 3.7 21:03:23 43° S 21:05:02 69° WSW 21:10:14 10° NNW
MOS 1 Rocket 4.0 21:00:09 10° N 21:05:33 66° WNW 21:10:53 10° SSW
Cosmos 2218 Rocket 4.1 21:01:11 10° N 21:07:06 52° ENE 21:07:06 52° ENE
ARGOS 4.5 21:02:33 10° SSW 21:07:24 36° W 21:12:20 10° NNW
CZ-2C R/B 2.9 21:03:49 10° N 21:08:57 64° WNW 21:13:37 13° SSW
GEOS 3 Rocket 4.5 21:08:29 33° SSW 21:10:03 42° WSW 21:14:57 10° NW
Cosmos 2181 Rocket 4.0 21:12:43 26° SSW 21:16:27 76° W 21:22:39 10° N
SL-8 Rocket 3.8 21:13:04 10° N 21:19:25 81° E 21:19:53 75° SE
Cosmos 1741 Rocket 4.2 21:21:15 65° N 21:21:15 65° N 21:25:48 10° NNE
Meteor 2-1 Rocket 4.2 21:23:24 84° NE 21:23:24 84° NE 21:29:09 10° N
NOSS 3-4 (A) 4.5 21:20:12 10° NW 21:27:18 53° WSW 21:30:02 38° SSW
NOSS 3-4 (C) 4.4 21:20:18 10° NW 21:27:25 54° WSW 21:30:06 38° SSW
Cosmos 2366 rocket 4.0 21:27:23 10° N 21:32:54 72° NNE 21:32:54 72° NNE
Cosmos 1959 Rocket 4.5 21:31:26 10° N 21:37:13 77° NNW 21:37:13 77° NNW
USA 234 3.6 21:42:06 10° NE 21:48:31 60° NW 21:54:55 10° WSW
COSMOS 2455 3.8 21:52:01 10° NW 21:57:07 41° W 21:57:07 41° W
ATLAS 2AS CENTAUR R/B 4.2 21:53:13 10° NW 21:58:55 26° WSW 22:00:29 24° SW
CZ-4C R/B 4.1 22:42:27 10° NNW 22:47:00 35° NNE 22:47:00 35° NNE
